Time,TemperatureF,DewpointF,PressureIn,WindDirection,WindDirectionDegrees,WindSpeedMPH,WindSpeedGustMPH,Humidity,HourlyPrecipIn,Conditions,Clouds,dailyrainin,SoftwareType,DateUTC
2013-08-07 00:00:00,59.3,58.7,29.63,SW,228,0.0,0.0,98,0.15,,---,0.00,VWS V14.01,2013-08-07 05:00:00,
2013-08-07 00:04:00,59.3,58.7,29.63,SW,227,0.0,0.0,98,0.06,,---,0.00,VWS V14.01,2013-08-07 05:04:00,
2013-08-07 00:09:00,59.2,58.6,29.63,SE,127,0.0,0.0,98,0.06,,---,0.00,VWS V14.01,2013-08-07 05:09:00,
2013-08-07 00:14:00,59.2,58.6,29.60,ESE,123,2.0,2.0,98,0.07,,---,0.01,VWS V14.01,2013-08-07 05:14:00,
2013-08-07 00:19:00,59.1,58.5,29.60,ESE,108,2.0,3.0,98,0.08,,---,0.02,VWS V14.01,2013-08-07 05:19:00,
2013-08-07 00:24:00,59.0,58.4,29.60,ESE,111,2.0,3.0,98,0.08,,---,0.02,VWS V14.01,2013-08-07 05:24:00,
2013-08-07 00:29:00,58.9,58.3,29.54,ESE,113,1.0,3.0,98,0.09,,---,0.03,VWS V14.01,2013-08-07 05:29:00,
2013-08-07 00:30:00,58.9,58.3,29.54,ESE,115,1.0,3.0,98,0.09,,---,0.03,VWS V14.01,2013-08-07 05:30:00,
2013-08-07 00:35:00,58.8,58.2,29.54,South,169,1.0,1.0,98,0.06,,---,0.03,VWS V14.01,2013-08-07 05:35:00,
2013-08-07 00:40:00,58.8,58.2,29.54,SE,133,0.0,1.0,98,0.06,,---,0.03,VWS V14.01,2013-08-07 05:40:00,
2013-08-07 00:45:00,58.8,58.2,29.57,SE,130,0.0,1.0,98,0.06,,---,0.03,VWS V14.01,2013-08-07 05:45:00,
2013-08-07 00:50:00,58.7,58.1,29.57,West,271,0.0,1.0,98,0.06,,---,0.03,VWS V14.01,2013-08-07 05:50:00,
2013-08-07 00:55:00,58.7,58.1,29.57,West,272,0.0,1.0,98,0.06,,---,0.03,VWS V14.01,2013-08-07 05:55:00,
2013-08-07 01:00:00,58.6,58.0,29.62,West,272,0.0,1.0,98,0.06,,---,0.03,VWS V14.01,2013-08-07 06:00:00,
2013-08-07 01:05:00,58.5,57.9,29.62,West,271,0.0,0.0,98,0.03,,---,0.03,VWS V14.01,2013-08-07 06:05:00,
2013-08-07 01:10:00,58.5,57.9,29.62,West,272,0.0,0.0,98,0.03,,---,0.03,VWS V14.01,2013-08-07 06:10:00,
2013-08-07 01:15:00,58.5,57.9,29.63,West,272,0.0,0.0,98,0.03,,---,0.03,VWS V14.01,2013-08-07 06:15:00,
2013-08-07 01:20:00,58.6,58.0,29.63,West,272,0.0,0.0,98,0.03,,---,0.03,VWS V14.01,2013-08-07 06:20:00,
2013-08-07 01:25:00,58.6,58.0,29.63,West,271,0.0,0.0,98,0.03,,---,0.03,VWS V14.01,2013-08-07 06:25:00,
2013-08-07 01:30:00,58.6,58.0,29.64,West,271,0.0,0.0,98,0.00,,---,0.03,VWS V14.01,2013-08-07 06:30:00,
2013-08-07 01:35:00,58.6,58.3,29.64,West,271,0.0,0.0,99,0.00,,---,0.03,VWS V14.01,2013-08-07 06:35:00,
2013-08-07 01:40:00,58.6,58.3,29.64,WSW,256,0.0,0.0,99,0.00,,---,0.03,VWS V14.01,2013-08-07 06:40:00,
2013-08-07 01:45:00,58.7,58.4,29.65,WSW,256,0.0,0.0,99,0.00,,---,0.03,VWS V14.01,2013-08-07 06:45:00,
2013-08-07 01:50:00,58.7,58.4,29.65,South,171,0.0,0.0,99,0.00,,---,0.03,VWS V14.01,2013-08-07 06:50:00,
2013-08-07 01:55:00,58.7,58.4,29.65,South,178,1.0,4.0,99,0.00,,---,0.03,VWS V14.01,2013-08-07 06:55:00,
2013-08-07 02:00:00,58.7,58.4,29.65,NW,311,0.0,0.0,99,0.00,,---,0.03,VWS V14.01,2013-08-07 07:00:00,
2013-08-07 02:05:00,58.7,58.4,29.65,WNW,299,0.0,0.0,99,0.00,,---,0.03,VWS V14.01,2013-08-07 07:05:00,
2013-08-07 02:11:00,58.6,58.3,29.65,WSW,258,0.0,0.0,99,0.00,,---,0.03,VWS V14.01,2013-08-07 07:11:00,
2013-08-07 02:16:00,58.6,58.3,29.65,WSW,256,1.0,3.0,99,0.00,,---,0.03,VWS V14.01,2013-08-07 07:16:00,
2013-08-07 02:21:00,58.6,58.3,29.65,West,272,0.0,3.0,99,0.01,,---,0.04,VWS V14.01,2013-08-07 07:21:00,
2013-08-07 02:26:00,58.5,58.2,29.65,West,273,1.0,3.0,99,0.01,,---,0.04,VWS V14.01,2013-08-07 07:26:00,
2013-08-07 02:30:00,58.4,58.1,29.64,West,276,0.0,3.0,99,0.01,,---,0.04,VWS V14.01,2013-08-07 07:30:00,
2013-08-07 02:31:00,58.4,58.1,29.64,West,265,0.0,0.0,99,0.01,,---,0.04,VWS V14.01,2013-08-07 07:31:00,
2013-08-07 02:36:00,58.4,58.1,29.64,West,271,0.0,0.0,99,0.01,,---,0.04,VWS V14.01,2013-08-07 07:36:00,
2013-08-07 02:41:00,58.4,58.1,29.64,West,280,0.0,0.0,99,0.01,,---,0.04,VWS V14.01,2013-08-07 07:41:00,
2013-08-07 02:46:00,58.3,58.0,29.64,West,260,0.0,0.0,99,0.01,,---,0.04,VWS V14.01,2013-08-07 07:46:00,
2013-08-07 02:51:00,58.4,58.1,29.64,WSW,250,0.0,0.0,99,0.01,,---,0.04,VWS V14.01,2013-08-07 07:51:00,
2013-08-07 02:56:00,58.3,58.0,29.64,WSW,237,0.0,0.0,99,0.01,,---,0.04,VWS V14.01,2013-08-07 07:56:00,
2013-08-07 03:00:00,58.3,58.0,29.64,WSW,239,0.0,0.0,99,0.01,,---,0.04,VWS V14.01,2013-08-07 08:00:00,
2013-08-07 03:01:00,58.3,58.0,29.64,WSW,239,0.0,0.0,99,0.01,,---,0.04,VWS V14.01,2013-08-07 08:01:00,
2013-08-07 03:06:00,58.2,57.9,29.64,WSW,239,0.0,0.0,99,0.01,,---,0.04,VWS V14.01,2013-08-07 08:06:00,
2013-08-07 03:11:00,58.2,57.9,29.64,West,278,0.0,0.0,99,0.01,,---,0.04,VWS V14.01,2013-08-07 08:11:00,
2013-08-07 03:16:00,58.2,57.9,29.64,West,265,1.0,3.0,99,0.01,,---,0.04,VWS V14.01,2013-08-07 08:16:00,
2013-08-07 03:21:00,58.2,57.9,29.64,WSW,257,0.0,3.0,99,0.01,,---,0.04,VWS V14.01,2013-08-07 08:21:00,
2013-08-07 03:26:00,58.2,57.9,29.64,WNW,282,1.0,4.0,99,0.01,,---,0.04,VWS V14.01,2013-08-07 08:26:00,
2013-08-07 03:30:00,58.3,58.0,29.64,West,276,0.0,4.0,99,0.01,,---,0.04,VWS V14.01,2013-08-07 08:30:00,
2013-08-07 03:31:00,58.3,58.0,29.64,West,276,0.0,1.0,99,0.00,,---,0.04,VWS V14.01,2013-08-07 08:31:00,
2013-08-07 03:36:00,58.3,58.0,29.64,West,272,0.0,1.0,99,0.00,,---,0.04,VWS V14.01,2013-08-07 08:36:00,
2013-08-07 03:41:00,58.3,58.0,29.64,West,263,0.0,1.0,99,0.00,,---,0.04,VWS V14.01,2013-08-07 08:41:00,
2013-08-07 03:46:00,58.4,58.1,29.64,WNW,303,0.0,1.0,99,0.00,,---,0.04,VWS V14.01,2013-08-07 08:46:00,
2013-08-07 03:51:00,58.4,58.1,29.64,WSW,249,0.0,2.0,99,0.00,,---,0.04,VWS V14.01,2013-08-07 08:51:00,
2013-08-07 03:57:00,58.4,58.1,29.64,West,271,0.0,2.0,99,0.00,,---,0.04,VWS V14.01,2013-08-07 08:57:00,
2013-08-07 04:00:00,58.5,58.2,29.64,West,276,0.0,2.0,99,0.00,,---,0.04,VWS V14.01,2013-08-07 09:00:00,
2013-08-07 04:02:00,58.5,58.2,29.64,West,265,0.0,0.0,99,0.00,,---,0.04,VWS V14.01,2013-08-07 09:02:00,
2013-08-07 04:07:00,58.5,58.2,29.64,West,265,0.0,0.0,99,0.00,,---,0.04,VWS V14.01,2013-08-07 09:07:00,
2013-08-07 04:12:00,58.6,58.3,29.64,WSW,250,0.0,2.0,99,0.00,,---,0.04,VWS V14.01,2013-08-07 09:12:00,
2013-08-07 04:17:00,58.7,58.4,29.65,West,263,2.0,3.0,99,0.00,,---,0.04,VWS V14.01,2013-08-07 09:17:00,
2013-08-07 04:22:00,58.8,58.5,29.65,WSW,252,1.0,3.0,99,0.00,,---,0.04,VWS V14.01,2013-08-07 09:22:00,
2013-08-07 04:27:00,58.9,58.6,29.65,WSW,237,1.0,3.0,99,0.00,,---,0.04,VWS V14.01,2013-08-07 09:27:00,
2013-08-07 04:30:00,58.9,58.6,29.65,West,279,0.0,3.0,99,0.00,,---,0.04,VWS V14.01,2013-08-07 09:30:00,
2013-08-07 04:32:00,58.9,58.6,29.65,WSW,256,0.0,0.0,99,0.00,,---,0.04,VWS V14.01,2013-08-07 09:32:00,
2013-08-07 04:37:00,59.0,58.7,29.65,WNW,294,0.0,1.0,99,0.00,,---,0.04,VWS V14.01,2013-08-07 09:37:00,
2013-08-07 04:42:00,59.0,58.7,29.65,WNW,283,0.0,3.0,99,0.00,,---,0.04,VWS V14.01,2013-08-07 09:42:00,
2013-08-07 04:47:00,59.1,58.8,29.64,West,275,1.0,3.0,99,0.00,,---,0.04,VWS V14.01,2013-08-07 09:47:00,
2013-08-07 04:52:00,59.2,58.9,29.64,West,271,2.0,6.0,99,0.00,,---,0.04,VWS V14.01,2013-08-07 09:52:00,
2013-08-07 04:57:00,59.2,58.9,29.64,West,271,0.0,6.0,99,0.00,,---,0.04,VWS V14.01,2013-08-07 09:57:00,
2013-08-07 05:00:00,59.3,59.0,29.64,West,277,2.0,6.0,99,0.00,,---,0.04,VWS V14.01,2013-08-07 10:00:00,
2013-08-07 05:02:00,59.3,59.0,29.64,West,268,0.0,3.0,99,0.00,,---,0.04,VWS V14.01,2013-08-07 10:02:00,
2013-08-07 05:07:00,59.3,59.0,29.64,West,272,0.0,4.0,99,0.00,,---,0.04,VWS V14.01,2013-08-07 10:07:00,
2013-08-07 05:12:00,59.4,59.1,29.64,NW,316,0.0,4.0,99,0.00,,---,0.04,VWS V14.01,2013-08-07 10:12:00,
2013-08-07 05:17:00,59.4,59.1,29.64,West,270,1.0,6.0,99,0.00,,---,0.04,VWS V14.01,2013-08-07 10:17:00,
2013-08-07 05:22:00,59.5,59.2,29.64,West,264,1.0,6.0,99,0.00,,---,0.04,VWS V14.01,2013-08-07 10:22:00,
2013-08-07 05:27:00,59.5,59.2,29.64,WSW,258,0.0,6.0,99,0.00,,---,0.04,VWS V14.01,2013-08-07 10:27:00,
2013-08-07 05:30:00,59.5,59.2,29.64,West,273,1.0,6.0,99,0.00,,---,0.04,VWS V14.01,2013-08-07 10:30:00,
2013-08-07 05:32:00,59.5,59.2,29.64,West,261,1.0,2.0,99,0.00,,---,0.04,VWS V14.01,2013-08-07 10:32:00,
2013-08-07 05:38:00,59.6,59.3,29.64,West,268,0.0,4.0,99,0.00,,---,0.04,VWS V14.01,2013-08-07 10:38:00,
2013-08-07 05:43:00,59.6,59.3,29.64,West,273,0.0,4.0,99,0.00,,---,0.04,VWS V14.01,2013-08-07 10:43:00,
2013-08-07 05:48:00,59.6,59.3,29.64,West,271,0.0,4.0,99,0.00,,---,0.04,VWS V14.01,2013-08-07 10:48:00,
2013-08-07 05:53:00,59.7,59.4,29.64,West,271,0.0,4.0,99,0.00,,---,0.04,VWS V14.01,2013-08-07 10:53:00,
2013-08-07 05:58:00,59.7,59.4,29.64,West,277,0.0,4.0,99,0.00,,---,0.04,VWS V14.01,2013-08-07 10:58:00,
2013-08-07 06:00:00,59.7,59.4,29.66,West,277,0.0,4.0,99,0.00,,---,0.04,VWS V14.01,2013-08-07 11:00:00,
2013-08-07 06:03:00,59.8,59.5,29.66,West,277,0.0,0.0,99,0.00,,---,0.04,VWS V14.01,2013-08-07 11:03:00,
2013-08-07 06:08:00,59.8,59.5,29.66,West,273,0.0,0.0,99,0.00,,---,0.04,VWS V14.01,2013-08-07 11:08:00,
2013-08-07 06:13:00,59.8,59.5,29.66,West,273,0.0,0.0,99,0.00,,---,0.04,VWS V14.01,2013-08-07 11:13:00,
2013-08-07 06:18:00,59.9,59.6,29.66,West,273,0.0,0.0,99,0.00,,---,0.04,VWS V14.01,2013-08-07 11:18:00,
2013-08-07 06:23:00,59.9,59.6,29.66,West,271,0.0,0.0,99,0.00,,---,0.04,VWS V14.01,2013-08-07 11:23:00,
2013-08-07 06:28:00,59.9,59.6,29.66,WNW,288,2.0,2.0,99,0.00,,---,0.04,VWS V14.01,2013-08-07 11:28:00,
2013-08-07 06:30:00,60.0,59.7,29.67,WNW,288,0.0,2.0,99,0.00,,---,0.04,VWS V14.01,2013-08-07 11:30:00,
2013-08-07 06:33:00,60.0,59.7,29.67,WSW,258,1.0,2.0,99,0.00,,---,0.04,VWS V14.01,2013-08-07 11:33:00,
2013-08-07 06:38:00,60.0,59.7,29.67,West,275,1.0,2.0,99,0.00,,---,0.04,VWS V14.01,2013-08-07 11:38:00,
2013-08-07 06:43:00,60.1,59.8,29.67,WSW,256,0.0,2.0,99,0.00,,---,0.04,VWS V14.01,2013-08-07 11:43:00,
2013-08-07 06:48:00,60.1,59.8,29.67,West,269,1.0,2.0,99,0.00,,---,0.04,VWS V14.01,2013-08-07 11:48:00,
2013-08-07 06:53:00,60.1,59.8,29.67,WSW,241,0.0,2.0,99,0.00,,---,0.04,VWS V14.01,2013-08-07 11:53:00,
2013-08-07 06:58:00,60.1,59.8,29.67,SW,225,0.0,2.0,99,0.00,,---,0.04,VWS V14.01,2013-08-07 11:58:00,
2013-08-07 07:00:00,60.0,59.7,29.67,West,281,2.0,3.0,99,0.00,,---,0.04,VWS V14.01,2013-08-07 12:00:00,
2013-08-07 07:03:00,60.0,59.7,29.67,West,267,2.0,2.0,99,0.00,,---,0.04,VWS V14.01,2013-08-07 12:03:00,
2013-08-07 07:09:00,60.1,59.5,29.67,WSW,253,1.0,3.0,98,0.00,,---,0.04,VWS V14.01,2013-08-07 12:09:00,
2013-08-07 07:14:00,60.1,59.5,29.67,West,263,1.0,3.0,98,0.00,,---,0.04,VWS V14.01,2013-08-07 12:14:00,
2013-08-07 07:19:00,60.1,59.5,29.69,West,275,1.0,3.0,98,0.00,,---,0.04,VWS V14.01,2013-08-07 12:19:00,
2013-08-07 07:24:00,60.2,59.6,29.69,WSW,256,1.0,4.0,98,0.00,,---,0.04,VWS V14.01,2013-08-07 12:24:00,
2013-08-07 07:29:00,60.2,59.6,29.69,WNW,300,2.0,6.0,98,0.00,,---,0.04,VWS V14.01,2013-08-07 12:29:00,
2013-08-07 07:30:00,60.2,59.6,29.69,West,276,1.0,6.0,98,0.00,,---,0.04,VWS V14.01,2013-08-07 12:30:00,
2013-08-07 07:34:00,60.2,59.3,29.69,West,273,1.0,2.0,97,0.00,,---,0.04,VWS V14.01,2013-08-07 12:34:00,
2013-08-07 07:39:00,60.3,59.5,29.69,WSW,248,1.0,3.0,97,0.00,,---,0.04,VWS V14.01,2013-08-07 12:39:00,
2013-08-07 07:44:00,60.2,59.3,29.69,West,281,1.0,4.0,97,0.00,,---,0.04,VWS V14.01,2013-08-07 12:44:00,
2013-08-07 07:49:00,60.3,59.5,29.70,West,280,0.0,4.0,97,0.00,,---,0.04,VWS V14.01,2013-08-07 12:49:00,
2013-08-07 07:54:00,60.4,59.5,29.70,West,267,1.0,4.0,97,0.00,,---,0.04,VWS V14.01,2013-08-07 12:54:00,
2013-08-07 07:59:00,60.5,59.7,29.70,West,277,1.0,5.0,97,0.00,,---,0.04,VWS V14.01,2013-08-07 12:59:00,
2013-08-07 08:00:00,60.5,59.7,29.70,West,272,2.0,5.0,97,0.00,,---,0.04,VWS V14.01,2013-08-07 13:00:00,
2013-08-07 08:04:00,60.5,59.4,29.70,West,275,1.0,4.0,96,0.00,,---,0.04,VWS V14.01,2013-08-07 13:04:00,
2013-08-07 08:09:00,60.6,59.5,29.70,West,280,2.0,5.0,96,0.00,,---,0.04,VWS V14.01,2013-08-07 13:09:00,
2013-08-07 08:14:00,60.7,59.6,29.71,WNW,284,2.0,5.0,96,0.00,,---,0.04,VWS V14.01,2013-08-07 13:14:00,
2013-08-07 08:19:00,60.8,59.7,29.71,West,277,0.0,5.0,96,0.00,,---,0.04,VWS V14.01,2013-08-07 13:19:00,
2013-08-07 08:24:00,61.0,59.9,29.71,WSW,253,0.0,5.0,96,0.00,,---,0.04,VWS V14.01,2013-08-07 13:24:00,
2013-08-07 08:29:00,61.1,60.0,29.71,West,271,2.0,5.0,96,0.00,,---,0.04,VWS V14.01,2013-08-07 13:29:00,
2013-08-07 08:30:00,61.0,59.8,29.71,WNW,284,2.0,5.0,96,0.00,,---,0.04,VWS V14.01,2013-08-07 13:30:00,
2013-08-07 08:34:00,61.1,60.0,29.71,West,277,1.0,2.0,96,0.00,,---,0.04,VWS V14.01,2013-08-07 13:34:00,
2013-08-07 08:39:00,61.2,60.0,29.71,West,266,1.0,4.0,96,0.00,,---,0.04,VWS V14.01,2013-08-07 13:39:00,
2013-08-07 08:45:00,61.3,60.2,29.72,West,269,0.0,4.0,96,0.00,,---,0.04,VWS V14.01,2013-08-07 13:45:00,
2013-08-07 08:50:00,61.4,60.2,29.72,West,263,0.0,4.0,96,0.00,,---,0.04,VWS V14.01,2013-08-07 13:50:00,
2013-08-07 08:55:00,61.3,59.9,29.72,WNW,283,3.0,4.0,95,0.00,,---,0.04,VWS V14.01,2013-08-07 13:55:00,
2013-08-07 09:00:00,61.4,60.0,29.72,West,268,0.0,4.0,95,0.00,,---,0.04,VWS V14.01,2013-08-07 14:00:00,
2013-08-07 09:05:00,61.5,60.1,29.72,West,261,1.0,2.0,95,0.00,,---,0.04,VWS V14.01,2013-08-07 14:05:00,
2013-08-07 09:10:00,61.8,60.4,29.72,West,269,0.0,2.0,95,0.00,,---,0.04,VWS V14.01,2013-08-07 14:10:00,
2013-08-07 09:15:00,62.4,61.0,29.72,WSW,253,0.0,2.0,95,0.00,,---,0.04,VWS V14.01,2013-08-07 14:15:00,
2013-08-07 09:20:00,63.2,61.2,29.72,West,277,1.0,3.0,93,0.00,,---,0.04,VWS V14.01,2013-08-07 14:20:00,
2013-08-07 09:25:00,63.3,60.6,29.72,WNW,292,4.0,6.0,91,0.00,,---,0.04,VWS V14.01,2013-08-07 14:25:00,
2013-08-07 09:30:00,63.2,60.8,29.73,West,271,1.0,2.0,92,0.00,,---,0.04,VWS V14.01,2013-08-07 14:30:00,
2013-08-07 09:35:00,63.2,59.9,29.73,West,276,1.0,4.0,89,0.00,,---,0.04,VWS V14.01,2013-08-07 14:35:00,
2013-08-07 09:40:00,63.2,60.2,29.73,West,266,2.0,4.0,90,0.00,,---,0.04,VWS V14.01,2013-08-07 14:40:00,
2013-08-07 09:45:00,63.9,60.9,29.73,WSW,248,1.0,4.0,90,0.00,,---,0.04,VWS V14.01,2013-08-07 14:45:00,
2013-08-07 09:50:00,64.0,60.4,29.73,WNW,287,2.0,5.0,88,0.00,,---,0.04,VWS V14.01,2013-08-07 14:50:00,
2013-08-07 09:55:00,63.4,60.1,29.73,WSW,255,1.0,8.0,89,0.00,,---,0.04,VWS V14.01,2013-08-07 14:55:00,
2013-08-07 10:00:00,63.4,60.1,29.74,NNE,27,1.0,2.0,89,0.00,,---,0.04,VWS V14.01,2013-08-07 15:00:00,
2013-08-07 10:05:00,64.2,60.6,29.74,WNW,300,0.0,3.0,88,0.00,,---,0.04,VWS V14.01,2013-08-07 15:05:00,
2013-08-07 10:10:00,65.1,61.1,29.74,SSE,159,1.0,3.0,87,0.00,,---,0.04,VWS V14.01,2013-08-07 15:10:00,
2013-08-07 10:16:00,65.5,61.2,29.75,West,264,0.0,3.0,86,0.00,,---,0.04,VWS V14.01,2013-08-07 15:16:00,
2013-08-07 10:21:00,65.5,60.5,29.75,West,265,1.0,3.0,84,0.00,,---,0.04,VWS V14.01,2013-08-07 15:21:00,
2013-08-07 10:26:00,65.4,60.8,29.75,NNW,341,0.0,4.0,85,0.00,,---,0.04,VWS V14.01,2013-08-07 15:26:00,
2013-08-07 10:30:00,65.3,60.3,29.75,NNW,342,2.0,4.0,84,0.00,,---,0.04,VWS V14.01,2013-08-07 15:30:00,
2013-08-07 10:31:00,65.3,60.3,29.75,SW,225,1.0,3.0,84,0.00,,---,0.04,VWS V14.01,2013-08-07 15:31:00,
2013-08-07 10:36:00,65.2,60.2,29.75,NNW,342,2.0,5.0,84,0.00,,---,0.04,VWS V14.01,2013-08-07 15:36:00,
2013-08-07 10:41:00,65.2,59.9,29.75,WSW,255,0.0,5.0,83,0.00,,---,0.04,VWS V14.01,2013-08-07 15:41:00,
2013-08-07 10:46:00,65.4,60.1,29.75,WSW,256,1.0,5.0,83,0.00,,---,0.04,VWS V14.01,2013-08-07 15:46:00,
2013-08-07 10:51:00,65.8,60.8,29.75,NNW,341,0.0,5.0,84,0.00,,---,0.04,VWS V14.01,2013-08-07 15:51:00,
2013-08-07 10:56:00,65.9,60.3,29.75,WSW,249,1.0,5.0,82,0.00,,---,0.04,VWS V14.01,2013-08-07 15:56:00,
2013-08-07 11:00:00,65.7,60.1,29.75,West,264,1.0,5.0,82,0.00,,---,0.04,VWS V14.01,2013-08-07 16:00:00,
2013-08-07 11:01:00,65.6,60.0,29.75,West,265,3.0,7.0,82,0.00,,---,0.04,VWS V14.01,2013-08-07 16:01:00,
2013-08-07 11:06:00,65.4,60.5,29.75,West,271,2.0,7.0,84,0.00,,---,0.04,VWS V14.01,2013-08-07 16:06:00,
2013-08-07 11:11:00,64.9,59.3,29.75,West,271,5.0,7.0,82,0.00,,---,0.04,VWS V14.01,2013-08-07 16:11:00,
2013-08-07 11:16:00,64.6,59.7,29.76,West,264,2.0,7.0,84,0.00,,---,0.04,VWS V14.01,2013-08-07 16:16:00,
2013-08-07 11:21:00,64.7,59.4,29.76,SW,223,1.0,7.0,83,0.00,,---,0.04,VWS V14.01,2013-08-07 16:21:00,
2013-08-07 11:26:00,64.9,59.3,29.76,West,271,0.0,7.0,82,0.00,,---,0.04,VWS V14.01,2013-08-07 16:26:00,
2013-08-07 11:30:00,65.2,59.9,29.77,West,260,2.0,7.0,83,0.00,,---,0.04,VWS V14.01,2013-08-07 16:30:00,
2013-08-07 11:31:00,65.4,60.1,29.77,West,265,2.0,2.0,83,0.00,,---,0.04,VWS V14.01,2013-08-07 16:31:00,
2013-08-07 11:36:00,65.4,59.8,29.77,West,268,1.0,6.0,82,0.00,,---,0.04,VWS V14.01,2013-08-07 16:36:00,
2013-08-07 11:41:00,65.4,60.1,29.77,WNW,290,3.0,6.0,83,0.00,,---,0.04,VWS V14.01,2013-08-07 16:41:00,
2013-08-07 11:46:00,65.0,59.7,29.77,West,264,3.0,6.0,83,0.00,,---,0.04,VWS V14.01,2013-08-07 16:46:00,
2013-08-07 11:52:00,65.2,59.9,29.77,West,267,0.0,6.0,83,0.00,,---,0.04,VWS V14.01,2013-08-07 16:52:00,
2013-08-07 11:57:00,65.7,59.7,29.77,West,275,3.0,6.0,81,0.00,,---,0.04,VWS V14.01,2013-08-07 16:57:00,
2013-08-07 12:00:00,65.5,59.5,29.77,WNW,294,5.0,7.0,81,0.00,,---,0.04,VWS V14.01,2013-08-07 17:00:00,
2013-08-07 12:02:00,65.4,59.8,29.77,West,266,2.0,4.0,82,0.00,,---,0.04,VWS V14.01,2013-08-07 17:02:00,
2013-08-07 12:07:00,65.2,59.6,29.77,WNW,298,3.0,5.0,82,0.00,,---,0.04,VWS V14.01,2013-08-07 17:07:00,
2013-08-07 12:12:00,65.3,60.0,29.77,West,263,0.0,7.0,83,0.00,,---,0.04,VWS V14.01,2013-08-07 17:12:00,
2013-08-07 12:17:00,65.7,59.7,29.78,WNW,285,2.0,7.0,81,0.00,,---,0.04,VWS V14.01,2013-08-07 17:17:00,
2013-08-07 12:22:00,65.8,59.8,29.78,West,269,2.0,7.0,81,0.00,,---,0.04,VWS V14.01,2013-08-07 17:22:00,
2013-08-07 12:27:00,66.1,60.1,29.78,WNW,284,6.0,7.0,81,0.00,,---,0.04,VWS V14.01,2013-08-07 17:27:00,
2013-08-07 12:30:00,66.5,60.2,29.78,WNW,283,3.0,9.0,80,0.00,,---,0.04,VWS V14.01,2013-08-07 17:30:00,
2013-08-07 12:32:00,66.8,60.4,29.78,West,259,3.0,5.0,80,0.00,,---,0.04,VWS V14.01,2013-08-07 17:32:00,
2013-08-07 12:37:00,67.3,60.2,29.78,NW,315,0.0,5.0,78,0.00,,---,0.04,VWS V14.01,2013-08-07 17:37:00,
2013-08-07 12:42:00,67.2,60.1,29.78,West,264,6.0,7.0,78,0.00,,---,0.04,VWS V14.01,2013-08-07 17:42:00,
2013-08-07 12:47:00,66.5,59.4,29.79,WNW,284,2.0,7.0,78,0.00,,---,0.04,VWS V14.01,2013-08-07 17:47:00,
2013-08-07 12:52:00,66.2,59.9,29.79,WSW,237,2.0,7.0,80,0.00,,---,0.04,VWS V14.01,2013-08-07 17:52:00,
2013-08-07 12:57:00,67.1,60.4,29.79,WNW,296,3.0,7.0,79,0.00,,---,0.04,VWS V14.01,2013-08-07 17:57:00,
2013-08-07 13:00:00,67.8,60.3,29.79,West,279,3.0,8.0,77,0.00,,---,0.04,VWS V14.01,2013-08-07 18:00:00,
2013-08-07 13:03:00,68.1,59.9,29.79,West,279,1.0,4.0,75,0.00,,---,0.04,VWS V14.01,2013-08-07 18:03:00,
2013-08-07 13:08:00,68.0,59.4,29.79,West,266,2.0,8.0,74,0.00,,---,0.04,VWS V14.01,2013-08-07 18:08:00,
2013-08-07 13:13:00,68.0,59.0,29.79,South,191,3.0,8.0,73,0.00,,---,0.04,VWS V14.01,2013-08-07 18:13:00,
2013-08-07 13:18:00,68.5,58.7,29.79,WSW,250,2.0,8.0,71,0.00,,---,0.04,VWS V14.01,2013-08-07 18:18:00,
2013-08-07 13:23:00,69.1,58.5,29.79,West,271,1.0,2.0,69,0.00,,---,0.04,VWS V14.01,2013-08-07 18:23:00,
2013-08-07 13:28:00,69.1,58.1,29.79,WNW,294,4.0,7.0,68,0.00,,---,0.04,VWS V14.01,2013-08-07 18:28:00,
2013-08-07 13:33:00,68.4,57.8,29.80,WNW,283,1.0,5.0,69,0.00,,---,0.04,VWS V14.01,2013-08-07 18:33:00,
2013-08-07 13:38:00,69.1,58.1,29.80,West,261,3.0,7.0,68,0.00,,---,0.04,VWS V14.01,2013-08-07 18:38:00,
2013-08-07 13:43:00,69.8,58.8,29.80,WSW,242,6.0,10.0,68,0.00,,---,0.04,VWS V14.01,2013-08-07 18:43:00,
2013-08-07 13:48:00,69.9,58.0,29.80,West,267,4.0,10.0,66,0.00,,---,0.04,VWS V14.01,2013-08-07 18:48:00,
2013-08-07 13:53:00,69.7,56.1,29.80,West,266,0.0,10.0,62,0.00,,---,0.04,VWS V14.01,2013-08-07 18:53:00,
2013-08-07 13:58:00,69.8,55.8,29.80,West,279,2.0,10.0,61,0.00,,---,0.04,VWS V14.01,2013-08-07 18:58:00,
2013-08-07 14:03:00,69.3,56.6,29.81,West,273,2.0,5.0,64,0.00,,---,0.04,VWS V14.01,2013-08-07 19:03:00,
2013-08-07 14:09:00,69.5,56.4,29.81,West,272,3.0,6.0,63,0.00,,---,0.04,VWS V14.01,2013-08-07 19:09:00,
2013-08-07 14:14:00,69.6,55.1,29.81,West,265,3.0,8.0,60,0.00,,---,0.04,VWS V14.01,2013-08-07 19:14:00,
2013-08-07 14:19:00,69.8,56.2,29.81,WNW,288,5.0,8.0,62,0.00,,---,0.04,VWS V14.01,2013-08-07 19:19:00,
2013-08-07 14:24:00,70.3,57.1,29.81,West,260,2.0,8.0,63,0.00,,---,0.04,VWS V14.01,2013-08-07 19:24:00,
2013-08-07 14:29:00,70.6,57.4,29.81,WNW,284,1.0,8.0,63,0.00,,---,0.04,VWS V14.01,2013-08-07 19:29:00,
2013-08-07 14:34:00,71.2,57.5,29.81,West,266,3.0,5.0,62,0.00,,---,0.04,VWS V14.01,2013-08-07 19:34:00,
2013-08-07 14:39:00,71.2,56.2,29.81,WNW,290,1.0,5.0,59,0.00,,---,0.04,VWS V14.01,2013-08-07 19:39:00,
2013-08-07 14:44:00,70.9,55.9,29.81,NNW,342,0.0,5.0,59,0.00,,---,0.04,VWS V14.01,2013-08-07 19:44:00,
2013-08-07 14:49:00,70.9,55.9,29.81,WSW,238,2.0,9.0,59,0.00,,---,0.04,VWS V14.01,2013-08-07 19:49:00,
2013-08-07 14:54:00,70.4,54.0,29.81,NW,311,2.0,9.0,56,0.00,,---,0.04,VWS V14.01,2013-08-07 19:54:00,
2013-08-07 14:59:00,70.1,55.1,29.81,East,80,3.0,9.0,59,0.00,,---,0.04,VWS V14.01,2013-08-07 19:59:00,
2013-08-07 15:04:00,69.9,54.0,29.81,WSW,252,4.0,8.0,57,0.00,,---,0.04,VWS V14.01,2013-08-07 20:04:00,
2013-08-07 15:09:00,70.1,54.2,29.81,WNW,292,1.0,8.0,57,0.00,,---,0.04,VWS V14.01,2013-08-07 20:09:00,
2013-08-07 15:14:00,70.5,54.5,29.82,WSW,256,3.0,8.0,57,0.00,,---,0.04,VWS V14.01,2013-08-07 20:14:00,
2013-08-07 15:19:00,70.6,54.6,29.82,WSW,246,3.0,8.0,57,0.00,,---,0.04,VWS V14.01,2013-08-07 20:19:00,
2013-08-07 15:24:00,71.0,54.0,29.82,West,264,0.0,8.0,55,0.00,,---,0.04,VWS V14.01,2013-08-07 20:24:00,
2013-08-07 15:29:00,71.3,54.8,29.82,SE,125,1.0,8.0,56,0.00,,---,0.04,VWS V14.01,2013-08-07 20:29:00,
2013-08-07 15:35:00,71.3,52.8,29.82,WSW,250,1.0,4.0,52,0.00,,---,0.04,VWS V14.01,2013-08-07 20:35:00,
2013-08-07 15:40:00,71.6,54.1,29.82,West,281,3.0,4.0,54,0.00,,---,0.04,VWS V14.01,2013-08-07 20:40:00,
2013-08-07 15:45:00,71.2,52.7,29.82,West,262,2.0,7.0,52,0.00,,---,0.04,VWS V14.01,2013-08-07 20:45:00,
2013-08-07 15:50:00,70.9,51.9,29.82,West,261,3.0,7.0,51,0.00,,---,0.04,VWS V14.01,2013-08-07 20:50:00,
2013-08-07 15:55:00,70.6,52.7,29.82,West,261,3.0,7.0,53,0.00,,---,0.04,VWS V14.01,2013-08-07 20:55:00,
2013-08-07 16:00:00,70.9,51.9,29.82,WSW,248,2.0,7.0,51,0.00,,---,0.04,VWS V14.01,2013-08-07 21:00:00,
2013-08-07 16:05:00,71.0,53.0,29.82,West,275,2.0,4.0,53,0.00,,---,0.04,VWS V14.01,2013-08-07 21:05:00,
2013-08-07 16:10:00,70.7,53.3,29.82,NNE,19,2.0,8.0,54,0.00,,---,0.04,VWS V14.01,2013-08-07 21:10:00,
2013-08-07 16:15:00,71.2,52.7,29.82,East,81,1.0,8.0,52,0.00,,---,0.04,VWS V14.01,2013-08-07 21:15:00,
2013-08-07 16:21:00,71.6,52.5,29.82,NE,53,2.0,8.0,51,0.00,,---,0.04,VWS V14.01,2013-08-07 21:21:00,
2013-08-07 16:26:00,71.7,52.1,29.82,East,80,1.0,8.0,50,0.00,,---,0.04,VWS V14.01,2013-08-07 21:26:00,
2013-08-07 16:31:00,71.2,51.1,29.82,WSW,244,1.0,4.0,49,0.00,,---,0.04,VWS V14.01,2013-08-07 21:31:00,
2013-08-07 16:36:00,71.0,52.0,29.82,East,82,2.0,4.0,51,0.00,,---,0.04,VWS V14.01,2013-08-07 21:36:00,
2013-08-07 16:41:00,70.7,50.6,29.82,West,273,1.0,7.0,49,0.00,,---,0.04,VWS V14.01,2013-08-07 21:41:00,
2013-08-07 16:46:00,70.5,50.4,29.82,NNW,346,1.0,7.0,49,0.00,,---,0.04,VWS V14.01,2013-08-07 21:46:00,
2013-08-07 16:51:00,70.5,49.3,29.82,NNE,24,2.0,7.0,47,0.00,,---,0.04,VWS V14.01,2013-08-07 21:51:00,
2013-08-07 16:57:00,70.0,50.0,29.82,WSW,254,3.0,7.0,49,0.00,,---,0.04,VWS V14.01,2013-08-07 21:57:00,
2013-08-07 17:02:00,69.5,50.6,29.83,WNW,302,2.0,4.0,51,0.00,,---,0.04,VWS V14.01,2013-08-07 22:02:00,
2013-08-07 17:07:00,69.4,51.0,29.83,West,272,2.0,5.0,52,0.00,,---,0.04,VWS V14.01,2013-08-07 22:07:00,
2013-08-07 17:12:00,69.1,48.6,29.83,West,279,2.0,5.0,48,0.00,,---,0.04,VWS V14.01,2013-08-07 22:12:00,
2013-08-07 17:17:00,68.8,48.9,29.83,West,268,1.0,6.0,49,0.00,,---,0.04,VWS V14.01,2013-08-07 22:17:00,
2013-08-07 17:22:00,69.0,49.6,29.83,WSW,246,0.0,6.0,50,0.00,,---,0.04,VWS V14.01,2013-08-07 22:22:00,
2013-08-07 17:27:00,69.0,49.6,29.83,WNW,286,2.0,6.0,50,0.00,,---,0.04,VWS V14.01,2013-08-07 22:27:00,
2013-08-07 17:32:00,68.9,49.5,29.83,WNW,291,1.0,3.0,50,0.00,,---,0.04,VWS V14.01,2013-08-07 22:32:00,
2013-08-07 17:38:00,68.9,48.4,29.83,ESE,105,1.0,4.0,48,0.00,,---,0.04,VWS V14.01,2013-08-07 22:38:00,
2013-08-07 17:43:00,68.6,49.8,29.83,WSW,244,0.0,4.0,51,0.00,,---,0.04,VWS V14.01,2013-08-07 22:43:00,
2013-08-07 17:48:00,68.3,48.4,29.83,West,260,3.0,6.0,49,0.00,,---,0.04,VWS V14.01,2013-08-07 22:48:00,
2013-08-07 17:53:00,68.0,48.7,29.83,West,265,2.0,6.0,50,0.00,,---,0.04,VWS V14.01,2013-08-07 22:53:00,
2013-08-07 17:58:00,67.9,47.5,29.83,West,272,1.0,6.0,48,0.00,,---,0.04,VWS V14.01,2013-08-07 22:58:00,
2013-08-07 18:03:00,68.1,48.8,29.84,SSW,213,1.0,2.0,50,0.00,,---,0.04,VWS V14.01,2013-08-07 23:03:00,
2013-08-07 18:08:00,67.9,48.6,29.84,West,272,1.0,4.0,50,0.00,,---,0.04,VWS V14.01,2013-08-07 23:08:00,
2013-08-07 18:13:00,67.8,48.0,29.84,NW,309,0.0,4.0,49,0.00,,---,0.04,VWS V14.01,2013-08-07 23:13:00,
2013-08-07 18:18:00,67.5,48.2,29.84,SW,234,1.0,4.0,50,0.00,,---,0.04,VWS V14.01,2013-08-07 23:18:00,
2013-08-07 18:23:00,67.3,47.0,29.84,West,268,1.0,4.0,48,0.00,,---,0.04,VWS V14.01,2013-08-07 23:23:00,
2013-08-07 18:28:00,67.0,47.2,29.84,West,271,1.0,4.0,49,0.00,,---,0.04,VWS V14.01,2013-08-07 23:28:00,
2013-08-07 18:33:00,66.9,48.2,29.84,West,269,2.0,4.0,51,0.00,,---,0.04,VWS V14.01,2013-08-07 23:33:00,
2013-08-07 18:38:00,66.8,48.6,29.84,West,263,2.0,4.0,52,0.00,,---,0.04,VWS V14.01,2013-08-07 23:38:00,
2013-08-07 18:43:00,66.6,48.4,29.84,NNW,342,1.0,4.0,52,0.00,,---,0.04,VWS V14.01,2013-08-07 23:43:00,
2013-08-07 18:49:00,66.4,48.3,29.84,ESE,105,0.0,4.0,52,0.00,,---,0.04,VWS V14.01,2013-08-07 23:49:00,
2013-08-07 18:54:00,66.2,48.6,29.84,West,261,1.0,4.0,53,0.00,,---,0.04,VWS V14.01,2013-08-07 23:54:00,
2013-08-07 18:59:00,66.0,47.4,29.84,WNW,300,0.0,4.0,51,0.00,,---,0.04,VWS V14.01,2013-08-07 23:59:00,
2013-08-07 19:04:00,65.8,48.7,29.85,WSW,253,0.0,2.0,54,0.00,,---,0.04,VWS V14.01,2013-08-08 00:04:00,
2013-08-07 19:09:00,65.7,48.6,29.85,South,178,0.0,2.0,54,0.00,,---,0.04,VWS V14.01,2013-08-08 00:09:00,
2013-08-07 19:14:00,65.4,51.2,29.85,South,178,0.0,2.0,60,0.00,,---,0.04,VWS V14.01,2013-08-08 00:14:00,
2013-08-07 19:19:00,65.2,52.3,29.86,SW,219,0.0,2.0,63,0.00,,---,0.04,VWS V14.01,2013-08-08 00:19:00,
2013-08-07 19:24:00,64.7,49.6,29.86,West,268,0.0,2.0,58,0.00,,---,0.04,VWS V14.01,2013-08-08 00:24:00,
2013-08-07 19:29:00,64.4,51.1,29.86,SW,236,0.0,2.0,62,0.00,,---,0.04,VWS V14.01,2013-08-08 00:29:00,
2013-08-07 19:34:00,64.1,53.3,29.85,East,89,1.0,1.0,68,0.00,,---,0.04,VWS V14.01,2013-08-08 00:34:00,
2013-08-07 19:39:00,63.4,52.3,29.85,East,88,0.0,1.0,67,0.00,,---,0.04,VWS V14.01,2013-08-08 00:39:00,
2013-08-07 19:45:00,62.6,51.5,29.86,East,88,0.0,1.0,67,0.00,,---,0.04,VWS V14.01,2013-08-08 00:45:00,
2013-08-07 20:01:00,61.0,50.0,29.86,East,89,0.0,0.0,67,0.00,,---,0.04,VWS V14.01,2013-08-08 01:01:00,
2013-08-07 20:09:00,60.4,52.5,29.86,East,88,0.0,0.0,75,0.00,,---,0.04,VWS V14.01,2013-08-08 01:09:00,
2013-08-07 20:14:00,59.8,52.6,29.87,East,89,0.0,0.0,77,0.00,,---,0.04,VWS V14.01,2013-08-08 01:14:00,
2013-08-07 20:19:00,59.0,50.7,29.87,East,88,0.0,0.0,74,0.00,,---,0.04,VWS V14.01,2013-08-08 01:19:00,
2013-08-07 20:24:00,58.6,51.4,29.87,East,88,0.0,0.0,77,0.00,,---,0.04,VWS V14.01,2013-08-08 01:24:00,
2013-08-07 20:29:00,58.0,51.5,29.87,East,88,0.0,0.0,79,0.00,,---,0.04,VWS V14.01,2013-08-08 01:29:00,
2013-08-07 20:35:00,57.7,52.2,29.87,East,88,0.0,0.0,82,0.00,,---,0.04,VWS V14.01,2013-08-08 01:35:00,
2013-08-07 20:40:00,57.0,51.6,29.87,East,88,0.0,0.0,82,0.00,,---,0.04,VWS V14.01,2013-08-08 01:40:00,
2013-08-07 20:45:00,56.5,51.7,29.87,East,89,0.0,0.0,84,0.00,,---,0.04,VWS V14.01,2013-08-08 01:45:00,
2013-08-07 20:50:00,56.0,51.6,29.87,East,88,0.0,0.0,85,0.00,,---,0.04,VWS V14.01,2013-08-08 01:50:00,
2013-08-07 20:55:00,55.6,51.5,29.87,East,89,0.0,0.0,86,0.00,,---,0.04,VWS V14.01,2013-08-08 01:55:00,
2013-08-07 21:00:00,55.3,51.5,29.88,East,89,0.0,0.0,87,0.00,,---,0.04,VWS V14.01,2013-08-08 02:00:00,
2013-08-07 21:05:00,55.0,51.5,29.88,East,89,0.0,0.0,88,0.00,,---,0.04,VWS V14.01,2013-08-08 02:05:00,
2013-08-07 21:10:00,54.6,51.1,29.88,East,88,0.0,0.0,88,0.00,,---,0.04,VWS V14.01,2013-08-08 02:10:00,
2013-08-07 21:15:00,54.2,51.0,29.89,East,88,0.0,0.0,89,0.00,,---,0.04,VWS V14.01,2013-08-08 02:15:00,
2013-08-07 21:20:00,53.9,50.7,29.89,East,89,0.0,1.0,89,0.00,,---,0.04,VWS V14.01,2013-08-08 02:20:00,
2013-08-07 21:25:00,53.8,50.9,29.89,East,88,0.0,1.0,90,0.00,,---,0.04,VWS V14.01,2013-08-08 02:25:00,
2013-08-07 21:30:00,53.7,50.8,29.89,East,89,0.0,0.0,90,0.00,,---,0.04,VWS V14.01,2013-08-08 02:30:00,
2013-08-07 21:35:00,53.4,50.5,29.89,East,88,0.0,0.0,90,0.00,,---,0.04,VWS V14.01,2013-08-08 02:35:00,
2013-08-07 21:40:00,53.1,50.2,29.89,East,88,0.0,0.0,90,0.00,,---,0.04,VWS V14.01,2013-08-08 02:40:00,
2013-08-07 21:46:00,52.8,50.0,29.90,East,88,0.0,0.0,90,0.00,,---,0.04,VWS V14.01,2013-08-08 02:46:00,
2013-08-07 21:51:00,52.4,49.6,29.90,East,89,0.0,0.0,90,0.00,,---,0.04,VWS V14.01,2013-08-08 02:51:00,
2013-08-07 21:56:00,52.2,50.0,29.90,East,88,0.0,0.0,92,0.00,,---,0.04,VWS V14.01,2013-08-08 02:56:00,
2013-08-07 22:01:00,52.1,50.1,29.91,East,88,0.0,0.0,93,0.00,,---,0.04,VWS V14.01,2013-08-08 03:01:00,
2013-08-07 22:06:00,51.9,49.9,29.91,East,88,0.0,0.0,93,0.00,,---,0.04,VWS V14.01,2013-08-08 03:06:00,
2013-08-07 22:11:00,51.8,49.8,29.91,East,88,0.0,0.0,93,0.00,,---,0.04,VWS V14.01,2013-08-08 03:11:00,
2013-08-07 22:16:00,51.7,49.8,29.91,East,88,0.0,0.0,93,0.00,,---,0.04,VWS V14.01,2013-08-08 03:16:00,
2013-08-07 22:21:00,51.5,49.5,29.91,East,88,0.0,0.0,93,0.00,,---,0.04,VWS V14.01,2013-08-08 03:21:00,
2013-08-07 22:26:00,51.3,49.3,29.91,East,88,0.0,0.0,93,0.00,,---,0.04,VWS V14.01,2013-08-08 03:26:00,
2013-08-07 22:31:00,51.1,49.2,29.92,East,89,0.0,0.0,93,0.00,,---,0.04,VWS V14.01,2013-08-08 03:31:00,
2013-08-07 22:36:00,51.0,49.3,29.92,East,88,0.0,0.0,94,0.00,,---,0.04,VWS V14.01,2013-08-08 03:36:00,
2013-08-07 22:41:00,50.9,49.2,29.92,East,88,0.0,0.0,94,0.00,,---,0.04,VWS V14.01,2013-08-08 03:41:00,
2013-08-07 22:46:00,50.8,49.1,29.92,East,89,0.0,0.0,94,0.00,,---,0.04,VWS V14.01,2013-08-08 03:46:00,
2013-08-07 22:51:00,50.7,49.0,29.92,East,88,0.0,0.0,94,0.00,,---,0.04,VWS V14.01,2013-08-08 03:51:00,
2013-08-07 22:56:00,50.6,49.2,29.92,East,88,0.0,0.0,95,0.00,,---,0.04,VWS V14.01,2013-08-08 03:56:00,
2013-08-07 23:01:00,50.4,49.0,29.92,East,89,0.0,0.0,95,0.00,,---,0.04,VWS V14.01,2013-08-08 04:01:00,
2013-08-07 23:02:00,50.4,48.7,29.92,East,89,0.0,0.0,94,0.00,,---,0.04,VWS V14.01,2013-08-08 04:02:00,
2013-08-07 23:04:00,50.3,48.9,29.92,East,89,0.0,0.0,95,0.00,,---,0.04,VWS V14.01,2013-08-08 04:04:00,
2013-08-07 23:06:00,50.3,48.9,29.92,East,89,0.0,0.0,95,0.00,,---,0.04,VWS V14.01,2013-08-08 04:06:00,
2013-08-07 23:11:00,50.3,48.9,29.92,East,88,0.0,0.0,95,0.00,,---,0.04,VWS V14.01,2013-08-08 04:11:00,
2013-08-07 23:16:00,50.1,48.7,29.93,East,89,0.0,0.0,95,0.00,,---,0.04,VWS V14.01,2013-08-08 04:16:00,
2013-08-07 23:21:00,50.0,48.6,29.93,East,88,0.0,0.0,95,0.00,,---,0.04,VWS V14.01,2013-08-08 04:21:00,
2013-08-07 23:26:00,49.8,48.4,29.93,East,88,0.0,0.0,95,0.00,,---,0.04,VWS V14.01,2013-08-08 04:26:00,
2013-08-07 23:32:00,49.8,48.4,29.93,East,88,0.0,0.0,95,0.00,,---,0.04,VWS V14.01,2013-08-08 04:32:00,
2013-08-07 23:37:00,49.8,48.7,29.93,East,88,0.0,0.0,96,0.00,,---,0.04,VWS V14.01,2013-08-08 04:37:00,
2013-08-07 23:42:00,49.6,48.2,29.93,East,88,0.0,0.0,95,0.00,,---,0.04,VWS V14.01,2013-08-08 04:42:00,
2013-08-07 23:47:00,49.5,48.1,29.93,East,89,0.0,0.0,95,0.00,,---,0.04,VWS V14.01,2013-08-08 04:47:00,
2013-08-07 23:52:00,49.3,47.9,29.93,East,89,0.0,0.0,95,0.00,,---,0.04,VWS V14.01,2013-08-08 04:52:00,
2013-08-07 23:57:00,49.1,47.7,29.93,East,88,0.0,1.0,95,0.00,,---,0.04,VWS V14.01,2013-08-08 04:57:00,